FW6537 Weather Reports


time (UTC)temp
C
wind
direction
speed
KPH
gust
KPH
rain 1hr
cm
rain 24hr
cm
rain mn
cm
humidity
%
barometer
mb
20260505174631 22 60 4.8 12.9 0.00 0.00 0.00 53 1003.3
20260505173130 22 63 4.8 16.1 0.00 0.00 0.00 54 1003.3
20260505171622 23 308 3.2 16.1 0.00 0.00 0.00 50 1003.2
20260505170139 23 90 4.8 12.9 0.00 0.00 0.00 50 1003.3
20260505164636 23 56 4.8 20.9 0.00 0.00 0.00 51 1003.0
20260505163129 23 97 4.8 19.3 0.00 0.00 0.00 51 1003.0
20260505160126 23 65 1.6 12.9 0.00 0.00 0.00 52 1003.0
20260505153147 23 33 4.8 11.3 0.00 0.00 0.00 52 1003.4
20260505151625 23 90 1.6 12.9 0.00 0.00 0.00 52 1003.5
20260505150124 24 73 6.4 19.3 0.00 0.00 0.00 50 1003.4
20260505140135 23 78 4.8 16.1 0.00 0.00 0.00 51 1002.8
20260505130155 22 56 8.0 19.3 0.00 0.00 0.00 55 1003.1
20260505124646 21 56 8.0 17.7 0.00 0.00 0.00 56 1003.2
20260505123158 21 60 4.8 16.1 0.00 0.00 0.00 58 1003.1
20260505121625 20 347 6.4 20.9 0.00 0.00 0.00 60 1003.1
20260505120147 20 27 6.4 16.1 0.00 0.00 0.00 61 1003.0
20260505114700 20 110 4.8 20.9 0.00 0.00 0.00 60 1002.9
20260505113131 18 41 3.2 12.9 0.00 0.00 0.00 64 1003.0
20260505111626 18 58 3.2 14.5 0.00 0.00 0.00 64 1002.9
20260505110149 18 76 4.8 9.7 0.00 0.00 0.00 64 1002.8
20260505101627 16 358 1.6 9.7 0.00 0.00 0.00 71 1002.4
20260505100129 15 81 1.6 4.8 0.00 0.00 0.00 73 1002.5
20260505094625 15 14 1.6 8.0 0.00 0.00 0.00 75 1002.6
20260505093128 15 94 4.8 11.3 0.00 0.00 0.00 76 1002.6
20260505091700 15 90 1.6 8.0 0.00 0.00 0.00 80 1002.6
20260505090135 15 72 1.6 9.7 0.00 0.00 0.00 81 1002.7
20260505084632 15 340 0.0 3.2 0.00 0.00 0.00 81 1002.7
20260505083133 16 95 0.0 4.8 0.00 0.00 0.00 76 1003.3
20260505081646 17 352 4.8 17.7 0.00 0.00 0.00 71 1003.3
20260505080158 16 24 3.2 8.0 0.00 0.00 0.00 68 1003.4
20260505074651 17 294 3.2 11.3 0.00 0.00 0.00 67 1003.0
20260505073123 17 101 1.6 4.8 0.00 0.00 0.00 68 1003.0
20260505071621 17 54 3.2 6.4 0.00 0.00 0.00 66 1003.2
20260505070136 17 18 3.2 8.0 0.00 0.00 0.00 66 1003.1
20260505063147 18 72 4.8 20.9 0.00 0.00 0.00 57 1002.8
20260505061640 18 90 3.2 12.9 0.00 0.00 0.00 57 1003.2
20260505060138 19 99 4.8 20.9 0.00 0.00 0.00 53 1002.9
20260505054630 19 89 4.8 17.7 0.00 0.00 0.00 52 1003.0
20260505053130 18 75 3.2 12.9 0.00 0.00 0.00 52 1003.1
20260505051701 18 50 4.8 11.3 0.00 0.00 0.00 53 1003.2
20260505050131 18 103 0.0 6.4 0.00 0.00 0.00 54 1003.1
20260505041632 17 25 3.2 8.0 0.00 0.00 0.00 54 1003.1
20260505040145 17 67 1.6 6.4 0.00 0.00 0.00 54 1003.0
20260505034644 17 41 1.6 6.4 0.00 0.00 0.00 53 1002.8
20260505033134 17 71 1.6 4.8 0.00 0.00 0.00 52 1002.9
20260505031629 17 87 1.6 6.4 0.00 0.00 0.00 52 1002.8
20260505030137 18 79 1.6 4.8 0.00 0.00 0.00 52 1002.8
20260505024634 18 68 1.6 8.0 0.00 0.00 0.00 51 1002.8
20260505023128 17 60 1.6 6.4 0.00 0.00 0.00 52 1003.0
20260505021626 17 67 1.6 4.8 0.00 0.00 0.00 51 1003.1
20260505020131 17 63 1.6 6.4 0.00 0.00 0.00 52 1003.0
20260505014623 16 94 0.0 0.0 0.00 0.00 0.00 54 1003.0
20260505013127 16 94 0.0 0.0 0.00 0.00 0.00 55 1003.0
20260505011626 16 94 0.0 0.0 0.00 0.00 0.00 55 1003.1
20260505010125 16 94 0.0 0.0 0.00 0.00 0.00 53 1002.8
20260505004624 17 94 0.0 0.0 0.00 0.00 0.00 51 1002.8
20260505003124 18 94 0.0 0.0 0.00 0.00 0.00 47 1002.7
20260505001639 19 94 0.0 0.0 0.00 0.00 0.00 43 1002.7
20260505000137 20 94 0.0 0.0 0.00 0.00 0.00 40 1002.6
20260504234655 21 94 0.0 0.0 0.00 0.00 0.00 37 1002.5
20260504233158 22 94 0.0 0.0 0.00 0.00 0.00 35 1002.5
20260504231631 22 77 1.6 6.4 0.00 0.00 0.00 33 1002.4
20260504230129 23 91 1.6 9.7 0.00 0.00 0.00 32 1002.5
20260504224647 23 89 0.0 6.4 0.00 0.00 0.00 32 1002.5
20260504223142 24 97 1.6 11.3 0.00 0.00 0.00 32 1002.6
20260504221658 24 66 3.2 14.5 0.00 0.00 0.00 31 1002.8
20260504220132 24 84 3.2 12.9 0.00 0.00 0.00 32 1002.8
20260504214626 24 76 6.4 14.5 0.00 0.00 0.00 32 1002.8
20260504213136 23 13 3.2 11.3 0.00 0.00 0.00 35 1002.9
20260504211634 24 118 3.2 11.3 0.00 0.00 0.00 35 1003.0
20260504210124 24 58 6.4 12.9 0.00 0.00 0.00 34 1002.8
20260504204643 24 84 4.8 11.3 0.00 0.00 0.00 36 1003.1
20260504203152 23 46 8.0 14.5 0.00 0.00 0.00 36 1003.4
20260504201648 23 88 8.0 16.1 0.00 0.00 0.00 36 1003.6
20260504200139 23 60 6.4 17.7 0.00 0.00 0.00 37 1003.8
20260504194625 23 39 6.4 14.5 0.00 0.00 0.00 37 1003.9
20260504193146 22 4 6.4 17.7 0.00 0.00 0.00 39 1004.2
20260504191649 22 54 6.4 22.5 0.00 0.00 0.00 40 1004.3
20260504190151 22 104 3.2 19.3 0.00 0.00 0.00 42 1004.4
20260504184641 22 86 6.4 16.1 0.00 0.00 0.00 44 1004.6
20260504183131 21 51 9.7 27.4 0.00 0.00 0.00 43 1004.7
20260504181624 21 68 6.4 14.5 0.00 0.00 0.00 43 1004.8
20260504180125 21 73 6.4 9.7 0.00 0.00 0.00 44 1004.9